Regional Weather Roundup
Issued by NWS

Home | Current Version | Previous Version | Graphics & Text | Print | Product List | Glossary On
Versions: 1 2 3 4 5 6 7 8 9 10 11 12 13 14 15 16 17 18 19 20 21 22 23 24 25 26 27 28 29 30 31 32 33 34 35 36 37 38 39 40 41 42 43 44 45 46 47 48 49 50
000
ASUS45 KABQ 250501
RWRNM
NEW MEXICO REGIONAL WEATHER ROUNDUP
NATIONAL WEATHER SERVICE ALBUQUERQUE NM
1100 PM MDT SAT SEP 24 2016

NOTE: "FAIR" MEANS FEW OR NO CLOUDS BELOW 12,000 FEET AGL WITH NO
       SIGNIFICANT WEATHER OR OBSTRUCTIONS TO VISION.

      THIS PRODUCT IS RELEASED AS TWO VERSIONS.  ONE VERSION NEAR
      THE TOP OF THE HOUR CONTAINING PRELIMINARY DATA FROM ALBUQUERQUE
      AND OTHER STATIONS.  A FINAL VERSION WITH ADDITIONAL DATA IS
      ISSUED ABOUT 10 MINUTES AFTER THE HOUR.

NMZ501-503-504-510>518-250600-
NORTHWEST PLATEAU/NORTHCENTRAL MOUNTAINS

CITY           SKY/WX    TMP DP  RH WIND       PRES   REMARKS
FARMINGTON     FAIR      52  34  50 NW6       30.23R
LOS ALAMOS     FAIR      53  31  43 N14G24    30.28R
SANTA FE       FAIR      53  34  48 N15       30.21S
TAOS           FAIR      48  27  43 N9        30.30R
ANGEL FIRE     FAIR      36  30  80 CALM      30.35R

$$
NMZ402-403-502-505>509-250600-
WESTCENTRAL MOUNTAINS/SOUTHWEST MOUNTAINS

CITY           SKY/WX    TMP DP  RH WIND       PRES   REMARKS
GALLUP         FAIR      49  29  46 NE7       30.29R
SILVER CITY    FAIR      58  30  34 N10       30.14R

$$
NMZ407-409-411-412-250600-
SOUTHERN DESERTS

CITY           SKY/WX    TMP DP  RH WIND       PRES   REMARKS
DEMING         FAIR      63  34  33 NW8       30.07R
LAS CRUCES     FAIR      59  32  35 NW5       30.07S
HOLLOMAN AFB   FAIR      70  39  32 SE6       30.03S
ALAMOGORDO     FAIR      64  37  36 SE6       30.06R
T OR C         FAIR      66  29  24 NE18G29   30.10R

$$
NMZ519>523-250600-
CENTRAL VALLEYS/CENTRAL HIGHLANDS

CITY           SKY/WX    TMP DP  RH WIND       PRES   REMARKS
ALBUQUERQUE    FAIR      59  33  37 N8        30.18S
DOUBLE EAGLE   FAIR      54  33  45 NW15      30.21S
CLINES CORNERS FAIR      44  33  65 W6        30.24R
BELEN          NOT AVBL
SOCORRO        FAIR      60  29  31 NW7       30.17R

$$
NMZ524>526-539-540-250600-
SOUTHCENTRAL MOUNTAINS

CITY           SKY/WX    TMP DP  RH WIND       PRES   REMARKS
RUIDOSO        FAIR      54  28  37 S3        30.23R

$$
NMZ527>531-250600-
NORTHEAST HIGHLANDS/NORTHEAST PLAINS

CITY           SKY/WX    TMP DP  RH WIND       PRES   REMARKS
LAS VEGAS      FAIR      47  30  51 N6        30.22R
RATON          FAIR      56  28  34 N15       30.21R
CLAYTON        FAIR      55  40  56 N13       30.13R

$$
NMZ532>537-250600-
EASTCENTRAL PLAINS

CITY           SKY/WX    TMP DP  RH WIND       PRES   REMARKS
TUCUMCARI      FAIR      55  28  35 W3        30.05R
CANNON AFB     FAIR      62  31  31 N9        30.07R
CLOVIS AIRPORT FAIR      57  34  41 NW10      30.06S

$$
NMZ028-029-538-250600-
SOUTHEAST PLAINS

CITY           SKY/WX    TMP DP  RH WIND       PRES   REMARKS
ROSWELL        FAIR      63  33  32 N8        30.02S
ARTESIA        FAIR      66  46  48 NW13      30.01R
CARLSBAD       FAIR      66  46  48 NW5       29.97S
HOBBS          FAIR      64  59  82 CALM      30.03F


$$




USA.gov is the U.S. government's official web portal to all federal, state and local government web resources and services.